Location: Nickerson Gardens
(33.9320°N, 118.2484°W)
Time: 09:38:14
(UTC+00:00)

ERS-2 - Pass Details

Date: 29 October 2020
Orbit: 493 x 497 km, 98.6° (Epoch: 27 November)

Event Time Altitude Azimuth Distance (km) Brightness Sun altitude
Rises 13:37:03 0° 210° (SSW) 2,564 5.5 -7.5°
Reaches altitude 10° 13:40:21 10° 243° (WSW) 1,687 4.3 -6.9°
Maximum altitude 13:41:42 12° 265° (W) 1,581 4.1 -6.6°
Drops below altitude 10° 13:43:05 10° 288° (WNW) 1,691 4.1 -6.3°
Enters shadow 13:45:06 - 311° (NW) 2,163 4.8 -5.9°
